[[{"header":{"parameterUnit":"m.s-1","parameterCategory":2,"la1":30.2991,"la2":30.254,"lo1":-89.0895,"lo2":-89.0444,"dy":0.0017,"dx":0.0017,"nx":28,"ny":28,"refTime":"2023-04-06T21:00:00:Z","depth":"0","parameterNumber":2,"parameterNumberName":"U-component_of_CURRENTS"},"data":[0,0,0,0,0,0,0,0,0,0,0,0,0,0,0,0,0,0,0,0,0,0,0,0,0,0,0,0,0,0,0,0,0,0,0,0,0,0,0,0,0,0,0,0,0,0,0,0,0,0,0,0,0,0,0,0,0,0,0.0724,0.0722,0,0.0566,0.0564,0.0562,0.0457,0.0456,0.0456,0.0455,0.0464,0.0465,0.0466,0,0,0,0,0,0,0,0,0,0,0,0,0,0.0882,0.088,0.0724,0.0722,0.072,0.0566,0.0564,0.0562,0.0457,0.0456,0.0456,0.0455,0.0464,0.0465,0.0466,0,0,0,0,0,0,0,0,0,0,0,0,0,0.0778,0.088,0.0724,0.0649,0.0641,0.0567,0.0564,0.0561,0.0457,0.0456,0.0455,0.0454,0.0464,0.0465,0.0466,0.0495,0,0,0.047,0.0471,0,0,0,0,0,0,0,0,0.0784,0.0772,0.0662,0.0654,0.0645,0.053,0.0623,0.0548,0.0458,0.0527,0.0455,0.0454,0.0503,0.0501,0.0471,0.0496,0.0496,0.0471,0.0471,0.0472,0.0472,0,0,0,0,0,0,0,0.0792,0.0778,0.0661,0.066,0.065,0.0606,0.059,0.0607,0.0526,0.0521,0.0513,0.0496,0.0499,0.047,0.0471,0.0496,0.0471,0.0472,0.0473,0.0473,0.0501,0.0501,0,0,0,0,0,0,0.0815,0.0785,0.0666,0.0656,0.0714,0.0604,0.0587,0.0568,0.0521,0.0512,0.0497,0.0492,0.0468,0.0469,0.0471,0.0493,0.0472,0.0473,0.0474,0.0501,0.0501,0.0501,0,0,0,0,0,0,0.0819,0.0806,0.0672,0.0718,0.0698,0.0603,0.0583,0.0566,0.0542,0.0502,0.0495,0.0492,0.0467,0.0469,0.0467,0.0493,0.0474,0.0475,0.0501,0.0501,0.0501,0.0544,0,0,0,0,0,0,0.0824,0.0809,0.0821,0.0719,0.0696,0.0643,0.0583,0.0563,0.0533,0.0524,0.0496,0.0494,0.0466,0.0464,0.0468,0.0495,0.0476,0.0501,0.0501,0.0501,0.0543,0.0546,0.0548,0,0,0,0,0,0.0831,0.0849,0.0823,0.0809,0.071,0.0643,0.0628,0.0557,0.0534,0.0531,0.049,0.0495,0.0466,0.0465,0.047,0.0497,0.0501,0.0501,0.0501,0.0542,0.0545,0.0548,0,0,0,0,0,0,0.0925,0.0836,0.0806,0.0797,0.0733,0.0626,0.063,0.0574,0.0536,0.0546,0.0496,0.0492,0.0493,0.0491,0.0491,0.0501,0.0486,0.0487,0.0516,0.0519,0.0521,0.0601,0.0477,0,0,0,0,0,0.0954,0.0945,0.0848,0.0846,0.0825,0.0734,0.0706,0.0655,0.0598,0.0579,0.0546,0.0521,0.0496,0.0504,0.0483,0.0508,0.0575,0.0526,0.0529,0.0531,0.0596,0.0655,0.0671,0.05,0.05,0.05,0,0,0.0986,0.0943,0.0935,0.0867,0.0821,0.08,0.0715,0.0688,0.0673,0.0596,0.0588,0.0534,0.0499,0.0495,0.05,0.0502,0.062,0.0531,0.0533,0.0599,0.0657,0.0675,0.069,0.05,0.05,0.05,0,0,0.1046,0.1018,0.1026,0.0989,0.0931,0.0874,0.0873,0.0778,0.0746,0.0721,0.0647,0.0611,0.0589,0.055,0.0533,0.0553,0.062,0.0542,0.0641,0.0696,0.0712,0.0727,0.0871,0.0898,0.0557,0.0557,0.0557,0,0.1086,0.1078,0.102,0.1023,0.1002,0.0916,0.0917,0.0879,0.079,0.0786,0.0739,0.0674,0.0622,0.0622,0.0602,0.0566,0.0643,0.0629,0.0705,0.072,0.0735,0.0879,0.0909,0.0559,0.0559,0.0559,0.0559,0,0.1135,0.1139,0.115,0.1122,0.1102,0.1091,0.1027,0.1016,0.0969,0.0919,0.0902,0.0808,0.0784,0.0732,0.0673,0.0734,0.0773,0.069,0.0708,0.0756,0.0903,0.0934,0.0562,0.0562,0.0561,0.0561,0,0,0.1164,0.1177,0.1175,0.1187,0.115,0.1129,0.115,0.1121,0.1142,0.1075,0.1102,0.1003,0.0964,0.0944,0.0854,0.0881,0.1016,0.0846,0.0847,0.1015,0.1234,0.1332,0.1375,0.0947,0.0952,0.0955,0.1311,0,0.1203,0.1236,0.1229,0.1261,0.1267,0.1236,0.1251,0.1236,0.1214,0.1227,0.1167,0.1155,0.1044,0.1026,0.104,0.1012,0.1094,0.0935,0.1144,0.1154,0.1253,0.1411,0.1404,0.1726,0.1341,0.1346,0.1349,0,0.123,0.1248,0.1287,0.1322,0.1323,0.1335,0.1361,0.1366,0.139,0.1386,0.1403,0.1362,0.1401,0.1271,0.1377,0.1289,0.1303,0.1284,0.1295,0.1407,0.1309,0.1605,0.1796,0.1696,0.1397,0.1393,0.1389,0,0.1244,0.1284,0.1319,0.1326,0.1352,0.1378,0.1389,0.1412,0.1444,0.1509,0.1566,0.1594,0.1634,0.1652,0.1651,0.1531,0.1797,0.1613,0.1744,0.1753,0.1807,0.1813,0.1951,0.1734,0.1733,0.1732,0.1731,0,0.1268,0.1295,0.1331,0.1345,0.1388,0.1407,0.1465,0.1487,0.1564,0.1627,0.1655,0.1737,0.1728,0.1852,0.1808,0.1956,0.1955,0.1863,0.1869,0.1823,0.1827,0.1785,0.1702,0.1745,0.1743,0.174,0.1738,0,0.1272,0.1299,0.1336,0.1377,0.1393,0.1419,0.1501,0.1552,0.1641,0.1744,0.179,0.1926,0.2107,0.216,0.224,0.22,0.2236,0.2314,0.2324,0.2325,0.2284,0.2203,0.2338,0.2259,0.2528,0.2533,0.2537,0,0.1274,0.1297,0.1338,0.136,0.1379,0.1433,0.147,0.1561,0.1629,0.1837,0.1897,0.2148,0.2294,0.2576,0.2596,0.272,0.2481,0.2744,0.2471,0.2395,0.2307,0.2105,0.2008,0.2581,0.2585,0.2588,0.2591,0,0.127,0.1284,0.1311,0.1354,0.1395,0.1446,0.1517,0.1589,0.1712,0.1853,0.2068,0.2231,0.2549,0.271,0.292,0.2923,0.2624,0.2815,0.2706,0.2398,0.222,0.2107,0.2283,0.2621,0.2618,0.2616,0.2614,0.2613,0.1253,0.1269,0.1307,0.1347,0.1394,0.1449,0.1484,0.1593,0.1733,0.1919,0.2112,0.2353,0.2658,0.296,0.2986,0.3022,0.285,0.2868,0.2805,0.2628,0.2467,0.2781,0.3108,0.3107,0.3107,0.3107,0.3107,0,0.1229,0.126,0.13,0.1346,0.1381,0.1418,0.1505,0.1545,0.168,0.1906,0.2111,0.2496,0.2723,0.2904,0.3081,0.3004,0.2767,0.2901,0.2568,0.2482,0.2777,0.2687,0.2971,0.2971,0.2971,0.2971,0.2972,0.2972,0.1219,0.1247,0.1276,0.1319,0.1354,0.1383,0.1419,0.1495,0.1633,0.1902,0.2135,0.2358,0.2713,0.2956,0.2975,0.2909,0.2594,0.2563,0.2435,0.2586,0.2573,0.2559,0.2453,0.2684,0.2684,0.2033,0.2028,0.2025]},{"header":{"parameterUnit":"m.s-1","parameterCategory":2,"la1":30.2991,"la2":30.254,"lo1":-89.0895,"lo2":-89.0444,"dy":0.0017,"dx":0.0017,"nx":28,"ny":28,"refTime":"2023-04-06T21:00:00:Z","depth":"0","parameterNumber":3,"parameterNumberName":"V-component_of_CURRENTS"},"data":[0,0,0,0,0,0,0,0,0,0,0,0,0,0,0,0,0,0,0,0,0,0,0,0,0,0,0,0,0,0,0,0,0,0,0,0,0,0,0,0,0,0,0,0,0,0,0,0,0,0,0,0,0,0,0,0,0,0,0.004,0.0041,0,0.013,0.0131,0.0132,0.017,0.017,0.017,0.017,0.0134,0.0133,0.0132,0,0,0,0,0,0,0,0,0,0,0,0,0,-0.0076,-0.0074,0.004,0.0041,0.0042,0.013,0.0131,0.0132,0.017,0.017,0.017,0.017,0.0135,0.0134,0.0132,0,0,0,0,0,0,0,0,0,0,0,0,0,-0.0011,-0.0074,0.004,0.0073,0.0077,0.013,0.0131,0.0133,0.017,0.017,0.017,0.017,0.0135,0.0134,0.0132,0.0125,0,0,0.0128,0.0127,0,0,0,0,0,0,0,0,-0.0015,-0.0007,0.0067,0.0071,0.0075,0.014,0.0078,0.0124,0.017,0.0133,0.017,0.017,0.0126,0.0125,0.0142,0.0123,0.0122,0.0128,0.0127,0.0126,0.0126,0,0,0,0,0,0,0,-0.0019,-0.001,0.0074,0.0068,0.0074,0.0092,0.0101,0.0087,0.0125,0.0137,0.014,0.0152,0.0127,0.0143,0.0141,0.0121,0.0128,0.0127,0.0126,0.0125,0.0104,0.0104,0,0,0,0,0,0,-0.0028,-0.0015,0.0071,0.0077,0.0031,0.0094,0.0104,0.0118,0.0128,0.0131,0.0152,0.0154,0.0146,0.0143,0.014,0.0135,0.0126,0.0125,0.0124,0.0103,0.0104,0.0104,0,0,0,0,0,0,-0.0031,-0.0021,0.0068,0.0034,0.0047,0.0096,0.0112,0.012,0.0134,0.0142,0.0142,0.0158,0.0145,0.0141,0.0132,0.0133,0.0125,0.0123,0.0103,0.0103,0.0104,0.0123,0,0,0,0,0,0,-0.0035,-0.0023,-0.0021,0.0034,0.0049,0.0093,0.0113,0.0122,0.0143,0.0146,0.0146,0.0144,0.0145,0.0135,0.0131,0.0131,0.0122,0.0103,0.0103,0.0104,0.0122,0.0124,0.0125,0,0,0,0,0,-0.0039,-0.0033,-0.0021,-0.0011,0.0052,0.0093,0.0102,0.0135,0.0143,0.0147,0.0154,0.0144,0.0135,0.0134,0.0129,0.0129,0.0103,0.0103,0.0104,0.0121,0.0123,0.0125,0,0,0,0,0,0,-0.0072,-0.0026,-0.0013,0.001,0.0044,0.01,0.0108,0.0131,0.0143,0.014,0.0144,0.0142,0.0135,0.0128,0.0127,0.0126,0.0118,0.0117,0.0132,0.0134,0.0136,0.0129,0.0121,0,0,0,0,0,-0.0081,-0.007,-0.0019,-0.0002,0.0011,0.0056,0.0075,0.01,0.0123,0.013,0.0137,0.0137,0.0136,0.0131,0.0128,0.0122,0.0118,0.012,0.0122,0.0124,0.0116,0.0117,0.0119,0.0106,0.0106,0.0106,0,0,-0.0084,-0.0061,-0.0052,-0.001,0.0017,0.0043,0.0067,0.0094,0.0115,0.0119,0.0137,0.0139,0.0135,0.0138,0.0134,0.0131,0.0128,0.0124,0.0126,0.0117,0.0118,0.0119,0.012,0.0106,0.0106,0.0106,0,0,-0.0079,-0.0072,-0.0055,-0.0036,0.0002,0.0027,0.0031,0.0082,0.0099,0.0117,0.0128,0.0128,0.0132,0.0136,0.0136,0.014,0.0136,0.0143,0.0146,0.0148,0.0149,0.015,0.0157,0.0158,0.0145,0.0145,0.0145,0,-0.0079,-0.0055,-0.0044,-0.0024,-0.0005,0.0017,0.0045,0.0061,0.0105,0.0117,0.0118,0.0138,0.0129,0.0137,0.0145,0.0142,0.0149,0.0139,0.015,0.0151,0.0151,0.0159,0.016,0.0146,0.0146,0.0146,0.0146,0,-0.0054,-0.0042,-0.0035,-0.0006,0.001,0.0032,0.0058,0.0071,0.0088,0.0114,0.0126,0.0128,0.014,0.0142,0.0143,0.0149,0.0156,0.0152,0.0145,0.0154,0.0161,0.0162,0.0147,0.0147,0.0147,0.0147,0,0,-0.0011,-0.0013,-0.0008,0.0005,0.0022,0.0048,0.0055,0.0087,0.0106,0.012,0.0149,0.0143,0.0148,0.0147,0.0152,0.0153,0.0163,0.0157,0.0157,0.0164,0.018,0.018,0.0181,0.0171,0.0171,0.0171,0.0188,0,0.0019,0.0045,0.0037,0.0066,0.0086,0.0085,0.01,0.0118,0.0131,0.0156,0.0148,0.017,0.0149,0.0165,0.0157,0.0178,0.0165,0.0159,0.0169,0.0169,0.0168,0.0181,0.0146,0.0157,0.0188,0.0188,0.0189,0,0.0065,0.0072,0.0098,0.011,0.012,0.0133,0.0158,0.0174,0.0185,0.0196,0.0195,0.0199,0.0205,0.0182,0.0188,0.0193,0.0175,0.0175,0.0176,0.0166,0.017,0.0151,0.0157,-0.0032,0.019,0.019,0.0189,0,0.0108,0.0124,0.0141,0.0145,0.0156,0.0167,0.0177,0.0189,0.023,0.0221,0.0265,0.0238,0.0281,0.0235,0.0241,0.0216,0.0256,0.0219,0.019,0.019,0.0154,0.0151,-0.0025,0.0188,0.0188,0.0188,0.0188,0,0.0152,0.0174,0.0159,0.0172,0.0208,0.0199,0.0246,0.0243,0.028,0.0353,0.0294,0.0375,0.0303,0.0327,0.0266,0.0258,0.0273,0.0189,0.0193,0.0162,0.0159,-0.0012,-0.0095,0.0189,0.0188,0.0188,0.0188,0,0.0206,0.019,0.0218,0.0222,0.0227,0.0255,0.0311,0.0359,0.037,0.0464,0.0477,0.0513,0.0546,0.0471,0.0437,0.0336,0.0193,0.0272,0.0245,0.0243,-0.0002,-0.008,-0.0211,-0.0286,0.0212,0.0212,0.0212,0,0.0241,0.0253,0.0259,0.0288,0.0293,0.0333,0.0379,0.0398,0.0472,0.0584,0.066,0.0708,0.0797,0.0731,0.0542,0.0406,0.0248,0.0249,0.0165,-0.0025,-0.011,-0.0169,-0.0227,0.013,0.0129,0.0129,0.0129,0,0.0318,0.0307,0.0328,0.0377,0.042,0.0482,0.0552,0.0636,0.0695,0.0808,0.0994,0.1072,0.098,0.086,0.0622,0.049,0.0094,0.0233,0.0037,-0.0192,-0.0269,-0.0334,0.0132,0.0124,0.0125,0.0125,0.0125,0.0125,0.0386,0.0422,0.0447,0.0498,0.0551,0.0657,0.0753,0.0869,0.1037,0.1239,0.1265,0.1412,0.11,0.0794,0.0577,0.0066,0.0094,-0.0114,-0.019,-0.023,-0.0328,0.0132,0.0128,0.0128,0.0129,0.0129,0.0129,0,0.0492,0.0529,0.0582,0.0661,0.0748,0.0746,0.0901,0.1029,0.1275,0.1435,0.1608,0.1511,0.1142,0.0707,0.0042,-0.0309,-0.0451,-0.051,-0.0643,-0.0679,-0.0278,-0.0311,-0.0413,-0.0413,-0.0412,-0.0412,-0.0412,-0.0412,0.0563,0.0643,0.0665,0.0829,0.0896,0.1047,0.1156,0.1344,0.149,0.1724,0.1797,0.1821,0.1442,0.0255,-0.0574,-0.0768,-0.1003,-0.1043,-0.1139,-0.0926,-0.0897,-0.0869,-0.0925,-0.1153,-0.1154,-0.1536,-0.154,-0.1544]}],[{"header":{"parameterUnit":"m.s-1","parameterCategory":2,"la1":30.2991,"la2":30.254,"lo1":-89.0895,"lo2":-89.0444,"dy":0.0017,"dx":0.0017,"nx":28,"ny":28,"refTime":"2023-04-06T21:00:00:Z","depth":"2","parameterNumber":2,"parameterNumberName":"U-component_of_CURRENTS"},"data":[0,0,0,0,0,0,0,0,0,0,0,0,0,0,0,0,0,0,0,0,0,0,0,0,0,0,0,0,0,0,0,0,0,0,0,0,0,0,0,0,0,0,0,0,0,0,0,0,0,0,0,0,0,0,0,0,0,0,0.092,0.0919,0,0.0819,0.0818,0.0817,0.0742,0.0741,0.0741,0.074,0.0756,0.0757,0.0758,0,0,0,0,0,0,0,0,0,0,0,0,0,0.1018,0.1017,0.092,0.0919,0.0918,0.0819,0.0818,0.0816,0.0742,0.0741,0.0741,0.074,0.0756,0.0757,0.0758,0,0,0,0,0,0,0,0,0,0,0,0,0,0.0952,0.1017,0.092,0.0869,0.0864,0.082,0.0818,0.0816,0.0742,0.0741,0.074,0.074,0.0756,0.0757,0.0759,0.0784,0,0,0.0763,0.0764,0,0,0,0,0,0,0,0,0.0955,0.0948,0.0878,0.0873,0.0867,0.0793,0.0858,0.0812,0.0742,0.0787,0.074,0.0739,0.0781,0.078,0.076,0.0785,0.0786,0.0763,0.0764,0.0765,0.0765,0,0,0,0,0,0,0,0.096,0.0952,0.0879,0.0877,0.087,0.0842,0.0831,0.0848,0.0792,0.0783,0.0778,0.0769,0.0778,0.0759,0.076,0.0786,0.0763,0.0764,0.0765,0.0766,0.0779,0.0778,0,0,0,0,0,0,0.0977,0.0956,0.0882,0.0876,0.0911,0.0841,0.0829,0.0817,0.0788,0.0783,0.0769,0.0765,0.0757,0.0759,0.0761,0.0782,0.0765,0.0766,0.0767,0.0779,0.0779,0.0778,0,0,0,0,0,0,0.098,0.0971,0.0886,0.0915,0.0902,0.084,0.0827,0.0815,0.0795,0.0777,0.0773,0.0761,0.0756,0.0759,0.076,0.0783,0.0767,0.0768,0.078,0.0779,0.0778,0.0831,0,0,0,0,0,0,0.0983,0.0973,0.0982,0.0916,0.0901,0.087,0.0827,0.0814,0.0791,0.0785,0.0769,0.0769,0.0755,0.0757,0.0761,0.0784,0.0769,0.0781,0.078,0.0779,0.083,0.0832,0.0834,0,0,0,0,0,0.0987,0.1004,0.0982,0.0974,0.0911,0.0871,0.0861,0.0813,0.0792,0.079,0.0762,0.0769,0.0753,0.0758,0.0763,0.0787,0.0781,0.078,0.0779,0.0829,0.0831,0.0834,0,0,0,0,0,0,0.1057,0.0996,0.0971,0.097,0.0928,0.0859,0.0866,0.0821,0.0796,0.0802,0.077,0.0768,0.0775,0.0768,0.0774,0.0781,0.0767,0.0766,0.0803,0.0806,0.0808,0.0868,0.077,0,0,0,0,0,0.1076,0.1073,0.1005,0.101,0.0995,0.0931,0.0913,0.0878,0.084,0.0827,0.0803,0.0785,0.0774,0.0779,0.077,0.0788,0.0849,0.08,0.0803,0.0805,0.0853,0.0913,0.0927,0.0774,0.0774,0.0774,0,0,0.1104,0.1076,0.1071,0.1025,0.0996,0.0987,0.0919,0.0905,0.0898,0.084,0.0838,0.08,0.0777,0.078,0.0784,0.0781,0.0886,0.0803,0.0806,0.0853,0.0914,0.0929,0.0943,0.0773,0.0774,0.0774,0,0,0.1161,0.1137,0.1148,0.1123,0.1085,0.1046,0.1043,0.0976,0.0951,0.0935,0.0883,0.0858,0.0844,0.0822,0.0813,0.0826,0.0891,0.0814,0.0888,0.0944,0.0959,0.0973,0.1114,0.1139,0.0821,0.0821,0.0821,0,0.1192,0.1195,0.1148,0.1156,0.1146,0.1077,0.1085,0.1057,0.0994,0.0993,0.095,0.0912,0.0871,0.0888,0.0868,0.0839,0.0912,0.0883,0.0954,0.0968,0.0981,0.1122,0.1149,0.0823,0.0823,0.0823,0.0822,0,0.1246,0.1253,0.1267,0.125,0.1238,0.1237,0.1189,0.118,0.1138,0.1103,0.1098,0.1027,0.1015,0.0971,0.0924,0.0981,0.1021,0.0949,0.0962,0.1001,0.1145,0.1174,0.0826,0.0826,0.0825,0.0824,0,0,0.1273,0.1294,0.1294,0.1307,0.1283,0.1272,0.1295,0.1279,0.1301,0.1246,0.1277,0.1201,0.1169,0.1155,0.1085,0.1105,0.1235,0.1073,0.1075,0.1243,0.145,0.1436,0.1466,0.1179,0.1183,0.1186,0.1532,0,0.1314,0.1353,0.1351,0.1388,0.1399,0.1374,0.1393,0.1386,0.1369,0.1388,0.134,0.1342,0.1241,0.1231,0.1242,0.1231,0.1306,0.1155,0.1363,0.1372,0.1376,0.1495,0.1312,0.1599,0.1559,0.1564,0.1568,0,0.1345,0.1366,0.141,0.1449,0.1452,0.1468,0.1497,0.1507,0.1536,0.1535,0.1555,0.1526,0.1566,0.1446,0.1555,0.1471,0.1491,0.1481,0.1492,0.1489,0.1409,0.154,0.1652,0.1615,0.1611,0.1608,0.1605,0,0.1356,0.1403,0.144,0.1449,0.1482,0.1508,0.1522,0.1549,0.1583,0.1647,0.1703,0.1736,0.1781,0.1801,0.1803,0.1698,0.1945,0.1793,0.1831,0.1834,0.1727,0.1712,0.1908,0.1908,0.1907,0.1906,0.1905,0,0.1381,0.141,0.1451,0.1466,0.1511,0.1533,0.1591,0.1616,0.1693,0.1762,0.1785,0.1871,0.1867,0.1983,0.1945,0.2038,0.2092,0.1921,0.1927,0.1741,0.1724,0.1744,0.172,0.1919,0.1916,0.1914,0.1912,0,0.1382,0.1412,0.1452,0.1499,0.1515,0.1543,0.1625,0.1677,0.1762,0.1869,0.1914,0.2048,0.2197,0.224,0.2321,0.2251,0.2301,0.2315,0.215,0.2127,0.2126,0.21,0.2404,0.2407,0.2409,0.2411,0.2412,0,0.1385,0.1406,0.1457,0.1482,0.1504,0.1557,0.1597,0.1684,0.175,0.1963,0.2025,0.2241,0.2355,0.2557,0.249,0.2549,0.2479,0.2389,0.2101,0.2205,0.218,0.2151,0.2123,0.2019,0.2017,0.2015,0.2014,0,0.1382,0.1398,0.1431,0.1478,0.1522,0.1579,0.165,0.1723,0.1847,0.1976,0.2178,0.231,0.2496,0.2473,0.2557,0.2511,0.2349,0.2357,0.2562,0.1885,0.1858,0.1826,0.181,0.2001,0.2002,0.2003,0.2004,0.2004,0.1371,0.1391,0.1434,0.148,0.1529,0.1598,0.1649,0.1754,0.1888,0.2025,0.2172,0.2277,0.2327,0.2335,0.2311,0.2261,0.2354,0.2179,0.2177,0.2178,0.2035,0.2008,0.2161,0.2163,0.2165,0.2167,0.2168,0,0.1363,0.1397,0.1438,0.1496,0.1541,0.1575,0.1681,0.1727,0.1869,0.1949,0.2066,0.1938,0.1985,0.2036,0.1942,0.1942,0.1842,0.1851,0.1685,0.1703,0.1719,0.1542,0.1543,0.1541,0.1539,0.1536,0,0,0.1364,0.14,0.1427,0.1492,0.1534,0.1591,0.1648,0.1711,0.177,0.1772,0.1757,0.1848,0.1982,0.1708,0.1702,0.162,0.1632,0.1559,0.2071,0.1896,0.1908,0.1937,0.1692,0,0,0,0,0]},{"header":{"parameterUnit":"m.s-1","parameterCategory":2,"la1":30.2991,"la2":30.254,"lo1":-89.0895,"lo2":-89.0444,"dy":0.0017,"dx":0.0017,"nx":28,"ny":28,"refTime":"2023-04-06T21:00:00:Z","depth":"2","parameterNumber":3,"parameterNumberName":"V-component_of_CURRENTS"},"data":[0,0,0,0,0,0,0,0,0,0,0,0,0,0,0,0,0,0,0,0,0,0,0,0,0,0,0,0,0,0,0,0,0,0,0,0,0,0,0,0,0,0,0,0,0,0,0,0,0,0,0,0,0,0,0,0,0,0,-0.0084,-0.0083,0,0.0004,0.0005,0.0006,0.0049,0.005,0.005,0.005,-0.0002,-0.0003,-0.0005,0,0,0,0,0,0,0,0,0,0,0,0,0,-0.0198,-0.0197,-0.0084,-0.0083,-0.0082,0.0004,0.0005,0.0006,0.0049,0.005,0.005,0.005,-0.0001,-0.0003,-0.0005,0,0,0,0,0,0,0,0,0,0,0,0,0,-0.0134,-0.0196,-0.0084,-0.0049,-0.0045,0.0003,0.0005,0.0006,0.0049,0.005,0.005,0.005,-0.0001,-0.0003,-0.0005,-0.0021,0,0,-0.0012,-0.0013,0,0,0,0,0,0,0,0,-0.0138,-0.013,-0.0056,-0.0052,-0.0047,0.0016,-0.0054,-0.0009,0.0049,0.0013,0.005,0.005,-0.0008,-0.001,0.0007,-0.0023,-0.0025,-0.0012,-0.0013,-0.0014,-0.0015,0,0,0,0,0,0,0,-0.0142,-0.0133,-0.005,-0.0054,-0.0049,-0.0032,-0.0023,-0.0045,-0.0003,0.0016,0.002,0.003,-0.0007,0.001,0.0006,-0.0026,-0.0012,-0.0014,-0.0015,-0.0016,-0.0045,-0.0044,0,0,0,0,0,0,-0.0152,-0.0138,-0.0053,-0.0047,-0.0092,-0.0031,-0.002,-0.0005,0.0001,0.0003,0.003,0.0032,0.0013,0.0009,0.0004,-0.0001,-0.0014,-0.0016,-0.0017,-0.0045,-0.0045,-0.0044,0,0,0,0,0,0,-0.0155,-0.0146,-0.0056,-0.009,-0.0078,-0.0029,-0.0011,-0.0003,0.0014,0.0013,0.0013,0.0038,0.0013,0.0007,-0.0005,-0.0004,-0.0017,-0.0019,-0.0046,-0.0045,-0.0044,-0.0021,0,0,0,0,0,0,-0.0159,-0.0147,-0.0145,-0.0091,-0.0076,-0.0035,-0.0011,-0.0001,0.002,0.0024,0.0019,0.0015,0.0013,-0.0002,-0.0007,-0.0007,-0.0021,-0.0046,-0.0045,-0.0044,-0.0023,-0.002,-0.0017,0,0,0,0,0,-0.0163,-0.0159,-0.0145,-0.0135,-0.0073,-0.0035,-0.0026,0.0009,0.002,0.0024,0.0031,0.0016,0.0001,-0.0003,-0.001,-0.001,-0.0047,-0.0046,-0.0045,-0.0024,-0.002,-0.0017,0,0,0,0,0,0,-0.0201,-0.0153,-0.0136,-0.0116,-0.0082,-0.0027,-0.0022,0.0005,0.0018,0.0015,0.0017,0.0013,0.0005,-0.0006,-0.0011,-0.0013,-0.0024,-0.0024,-0.0006,-0.0003,-0.0001,-0.0009,-0.0023,0,0,0,0,0,-0.021,-0.0199,-0.0147,-0.0133,-0.012,-0.0072,-0.0054,-0.0029,-0.0005,0.0002,0.0008,0.0008,0.0006,-0.0002,-0.0008,-0.0019,-0.0033,-0.002,-0.0018,-0.0015,-0.0025,-0.0028,-0.0026,-0.004,-0.004,-0.004,0,0,-0.0218,-0.0193,-0.0184,-0.0141,-0.0114,-0.009,-0.0061,-0.0037,-0.0016,-0.0012,0.0007,0.0011,0.0005,0.0007,0.0001,-0.0005,-0.0019,-0.0014,-0.0012,-0.0024,-0.0026,-0.0025,-0.0024,-0.0039,-0.0039,-0.0039,0,0,-0.0223,-0.021,-0.0197,-0.0176,-0.0139,-0.0112,-0.0107,-0.0055,-0.0035,-0.0016,-0.0001,0.0003,0.0002,0.0008,0.0007,0.0015,-0.0004,0.0017,0.002,0.0019,0.002,0.002,0.0001,-0.0,0.0019,0.0019,0.0019,0,-0.0227,-0.0204,-0.0188,-0.017,-0.015,-0.0124,-0.0099,-0.008,-0.0035,-0.002,-0.0015,0.0008,0.0002,0.0009,0.0022,0.0018,0.0013,0.0009,0.0022,0.0022,0.0022,0.0002,0.0001,0.002,0.002,0.002,0.002,0,-0.0214,-0.02,-0.0195,-0.0164,-0.0148,-0.0127,-0.0097,-0.0081,-0.0058,-0.0029,-0.0012,-0.0004,0.001,0.0016,0.002,0.0026,0.002,0.0026,0.0012,0.0024,0.0003,0.0001,0.0022,0.0021,0.0021,0.0021,0,0,-0.0187,-0.0182,-0.0177,-0.0161,-0.014,-0.0115,-0.0107,-0.0072,-0.005,-0.0031,-0.0001,0.0004,0.0014,0.0014,0.0025,0.0027,0.0025,0.003,0.0029,0.0007,0.0013,-0.0073,-0.0084,0.0041,0.0041,0.0041,-0.0003,0,-0.0166,-0.014,-0.0144,-0.0115,-0.0093,-0.0087,-0.0072,-0.0051,-0.0031,-0.0004,-0.0005,0.002,0.0011,0.003,0.0025,0.0041,0.0021,0.0035,0.0007,0.0005,-0.0076,-0.0089,-0.0051,-0.0094,-0.0005,-0.0006,-0.0006,0,-0.0133,-0.0121,-0.0094,-0.0075,-0.0064,-0.005,-0.0019,-0.0003,0.0011,0.0026,0.0029,0.0036,0.0041,0.0034,0.0024,0.0039,0.0015,0.0013,0.0011,-0.0083,-0.0086,-0.0091,-0.0101,-0.001,-0.001,-0.001,-0.0009,0,-0.0097,-0.0078,-0.0056,-0.005,-0.0031,-0.0017,-0.0005,0.0012,0.0047,0.0045,0.008,0.0058,0.0089,0.0046,0.0033,0.0035,0.0018,0.0018,-0.0097,-0.0104,-0.0088,-0.0094,-0.0022,-0.0022,-0.0022,-0.0022,-0.0022,0,-0.0061,-0.0036,-0.0038,-0.0021,0.0016,0.0013,0.0057,0.006,0.009,0.0149,0.0103,0.0154,0.0102,0.0092,0.0037,-0.0039,0.0012,-0.0115,-0.0125,-0.0081,-0.0085,-0.0023,-0.0023,-0.0023,-0.0023,-0.0023,-0.0023,0,-0.0018,-0.0021,0.0011,0.0025,0.0034,0.0062,0.011,0.0149,0.0161,0.0236,0.0245,0.0249,0.0207,0.0126,0.0072,-0.0013,-0.0092,-0.0138,-0.01,-0.0108,-0.022,-0.0217,-0.0288,-0.0292,-0.0295,-0.0297,-0.03,0,0.0012,0.0023,0.0046,0.0076,0.0086,0.0125,0.0163,0.0181,0.0235,0.0314,0.0364,0.0337,0.0333,0.0175,0.0007,-0.0165,-0.0155,-0.0254,-0.0272,-0.0247,-0.0249,-0.0242,-0.0236,-0.0229,-0.0231,-0.0232,-0.0233,0,0.006,0.0058,0.0083,0.0134,0.0176,0.0232,0.0289,0.0342,0.039,0.0454,0.0536,0.0535,0.0366,0.0201,-0.0068,-0.0175,-0.0237,-0.029,-0.0239,-0.019,-0.0201,-0.02,-0.0193,-0.0243,-0.0242,-0.0241,-0.024,-0.024,0.0097,0.0125,0.0148,0.0197,0.0262,0.0341,0.0385,0.046,0.0547,0.0629,0.0644,0.0645,0.044,0.0084,-0.0119,-0.034,-0.0344,-0.0399,-0.039,-0.0381,-0.0389,-0.0407,-0.0489,-0.0489,-0.0489,-0.049,-0.049,0,0.012,0.0162,0.0213,0.0279,0.0351,0.0383,0.0475,0.0494,0.0591,0.0691,0.073,0.0569,0.0368,0.0137,-0.0196,-0.0417,-0.0383,-0.0481,-0.0368,-0.0358,-0.035,-0.035,-0.0443,-0.0443,-0.0443,-0.0444,0,0,0.0142,0.0182,0.0198,0.0323,0.04,0.0498,0.055,0.0569,0.0626,0.0695,0.0738,0.0685,0.0443,0.0204,-0.0081,-0.025,-0.0253,-0.0289,-0.0307,-0.0131,-0.0119,-0.0289,-0.028,0,0,0,0,0]}],[{"header":{"parameterUnit":"m.s-1","parameterCategory":2,"la1":30.2991,"la2":30.254,"lo1":-89.0895,"lo2":-89.0444,"dy":0.0017,"dx":0.0017,"nx":28,"ny":28,"refTime":"2023-04-06T21:00:00:Z","depth":"4","parameterNumber":2,"parameterNumberName":"U-component_of_CURRENTS"},"data":[0,0,0,0,0,0,0,0,0,0,0,0,0,0,0,0,0,0,0,0,0,0,0,0,0,0,0,0,0,0,0,0,0,0,0,0,0,0,0,0,0,0,0,0,0,0,0,0,0,0,0,0,0,0,0,0,0,0,0.0755,0.0756,0,0.082,0.0821,0.0821,0.0882,0.0883,0.0884,0.0885,0.103,0.1033,0.1036,0,0,0,0,0,0,0,0,0,0,0,0,0,0.0662,0.0664,0.0755,0.0756,0.0757,0.082,0.0821,0.0821,0.0882,0.0883,0.0884,0.0885,0.1029,0.1033,0.1037,0,0,0,0,0,0,0,0,0,0,0,0,0,0.071,0.0664,0.0755,0.0796,0.0801,0.082,0.0821,0.0821,0.0881,0.0883,0.0884,0.0886,0.1028,0.1033,0.1037,0.1036,0,0,0.1051,0.1053,0,0,0,0,0,0,0,0,0.0708,0.0713,0.0789,0.0793,0.0799,0.0846,0.0842,0.0898,0.0881,0.0848,0.0885,0.0886,0.0977,0.0985,0.099,0.1043,0.1049,0.1051,0.1054,0.1056,0.1057,0,0,0,0,0,0,0,0.0704,0.0711,0.0778,0.079,0.0796,0.0805,0.0813,0.0852,0.0904,0.0851,0.0856,0.0867,0.098,0.0986,0.0994,0.1052,0.1051,0.1055,0.1058,0.106,0.1183,0.1183,0,0,0,0,0,0,0.07,0.0708,0.0776,0.0781,0.0758,0.0805,0.0815,0.0828,0.0902,0.0914,0.0865,0.0869,0.0977,0.0989,0.1,0.1086,0.1056,0.106,0.1063,0.1182,0.1183,0.1184,0,0,0,0,0,0,0.0698,0.0706,0.0774,0.0747,0.0757,0.0806,0.082,0.0828,0.0859,0.0912,0.0926,0.0891,0.0979,0.0994,0.1043,0.1089,0.1062,0.1066,0.1182,0.1182,0.1183,0.1205,0,0,0,0,0,0,0.0695,0.0704,0.0721,0.0747,0.0758,0.0803,0.0819,0.0829,0.0863,0.0869,0.0938,0.0951,0.0981,0.1036,0.1048,0.1095,0.107,0.1181,0.1182,0.1183,0.1204,0.1207,0.1209,0,0,0,0,0,0.0691,0.0709,0.0721,0.073,0.0777,0.0804,0.081,0.0848,0.0863,0.088,0.0916,0.095,0.1052,0.1039,0.1053,0.1103,0.118,0.1182,0.1183,0.1203,0.1206,0.1209,0,0,0,0,0,0,0.0688,0.0717,0.0732,0.0761,0.0788,0.0815,0.0841,0.0855,0.0894,0.0909,0.0951,0.0966,0.1029,0.1052,0.1037,0.1138,0.1125,0.1129,0.1135,0.1139,0.1142,0.1147,0.1073,0,0,0,0,0,0.0691,0.071,0.0738,0.0766,0.0781,0.0811,0.083,0.0851,0.0884,0.0903,0.0949,0.0996,0.1039,0.1077,0.1113,0.1167,0.1176,0.1208,0.121,0.1213,0.1224,0.1245,0.1251,0.1188,0.1188,0.1188,0,0,0.0697,0.0718,0.073,0.0766,0.0793,0.0819,0.0827,0.0862,0.0889,0.0913,0.0975,0.1007,0.1051,0.111,0.1142,0.1142,0.1236,0.1214,0.1216,0.1227,0.1247,0.1253,0.1259,0.1189,0.1189,0.1188,0,0,0.0718,0.0741,0.0763,0.0785,0.0825,0.0839,0.0851,0.0888,0.0916,0.096,0.0987,0.1036,0.1107,0.1146,0.1174,0.1211,0.1242,0.1236,0.1271,0.1291,0.1297,0.1302,0.1324,0.1331,0.1247,0.1248,0.1248,0,0.0728,0.076,0.0775,0.0805,0.083,0.085,0.088,0.0903,0.0951,0.0977,0.0987,0.1081,0.1124,0.1189,0.1214,0.1222,0.1237,0.1257,0.1295,0.13,0.1305,0.1327,0.1334,0.1249,0.1249,0.1248,0.1248,0,0.0758,0.0793,0.0812,0.0852,0.0876,0.0907,0.0935,0.0968,0.0999,0.1021,0.1087,0.1127,0.1191,0.1213,0.1236,0.1301,0.1302,0.1288,0.1287,0.1313,0.1334,0.1341,0.125,0.125,0.125,0.1249,0,0,0.0759,0.082,0.0831,0.0858,0.0904,0.0925,0.0972,0.1015,0.1055,0.1094,0.1148,0.1216,0.124,0.1272,0.1303,0.133,0.1385,0.1339,0.134,0.1363,0.144,0.1382,0.1384,0.1381,0.1382,0.1383,0.1442,0,0.0784,0.084,0.0866,0.0922,0.0949,0.0984,0.1026,0.1066,0.1106,0.1161,0.1195,0.1261,0.1261,0.1313,0.1335,0.138,0.1405,0.1371,0.1411,0.1413,0.1359,0.1391,0.1387,0.1447,0.1449,0.145,0.1451,0,0.0799,0.0838,0.0894,0.0957,0.0976,0.1011,0.1081,0.1126,0.1191,0.1229,0.1282,0.1314,0.1385,0.137,0.1437,0.142,0.1441,0.1453,0.1455,0.14,0.1368,0.1416,0.1464,0.1463,0.1462,0.1461,0.146,0,0.0774,0.0852,0.0898,0.092,0.0994,0.1034,0.1081,0.1148,0.1196,0.1286,0.1333,0.1388,0.1455,0.1465,0.151,0.1488,0.1566,0.1529,0.1485,0.1481,0.1506,0.15,0.1563,0.1563,0.1563,0.1563,0.1562,0,0.0772,0.0812,0.0895,0.0918,0.0981,0.1037,0.1111,0.1168,0.1253,0.1309,0.1376,0.1423,0.1488,0.1536,0.1535,0.1543,0.1586,0.1503,0.1495,0.1513,0.1508,0.1511,0.1504,0.1565,0.1564,0.1564,0.1563,0,0.0735,0.0789,0.0845,0.0936,0.0969,0.1018,0.1126,0.1167,0.1269,0.1349,0.1388,0.1488,0.1559,0.1598,0.1648,0.1593,0.1591,0.1581,0.1621,0.1613,0.1484,0.1478,0.1525,0.1523,0.1522,0.1521,0.152,0,0.072,0.0743,0.0848,0.0884,0.0932,0.1013,0.1055,0.1162,0.1204,0.1362,0.1382,0.1513,0.1565,0.1584,0.1625,0.1628,0.1605,0.1591,0.1511,0.1493,0.1482,0.1477,0.1473,0.1518,0.1517,0.1517,0.1517,0,0.0685,0.0729,0.0775,0.0851,0.0904,0.0961,0.1036,0.1064,0.1187,0.1289,0.1365,0.1419,0.1509,0.1543,0.1588,0.1566,0.1585,0.1577,0.1578,0.1503,0.1486,0.1474,0.1471,0.1512,0.1513,0.1513,0.1514,0,0.066,0.0684,0.0746,0.0808,0.0869,0.0896,0.0944,0.1001,0.1066,0.1236,0.1255,0.1385,0.1496,0.1513,0.1526,0.1539,0.15,0.1425,0.1433,0.1439,0.1384,0.1347,0.1336,0,0,0,0,0,0.0631,0.0651,0.0698,0.0757,0.0809,0.0848,0.092,0.0964,0.1081,0.1107,0.1187,0.1261,0.1337,0.1388,0.1384,0.1474,0.1494,0.146,0.1407,0.1488,0.1493,0.1436,0,0,0,0,0,0,0.0611,0.0651,0.0675,0.0696,0.0727,0.0769,0.0813,0.0885,0.0905,0.1038,0.1082,0.119,0.1272,0.1342,0.1366,0.1383,0.1323,0.154,0.1537,0.1485,0.149,0.1494,0.1437,0,0,0,0,0]},{"header":{"parameterUnit":"m.s-1","parameterCategory":2,"la1":30.2991,"la2":30.254,"lo1":-89.0895,"lo2":-89.0444,"dy":0.0017,"dx":0.0017,"nx":28,"ny":28,"refTime":"2023-04-06T21:00:00:Z","depth":"4","parameterNumber":3,"parameterNumberName":"V-component_of_CURRENTS"},"data":[0,0,0,0,0,0,0,0,0,0,0,0,0,0,0,0,0,0,0,0,0,0,0,0,0,0,0,0,0,0,0,0,0,0,0,0,0,0,0,0,0,0,0,0,0,0,0,0,0,0,0,0,0,0,0,0,0,0,0.0004,0.0004,0,0.0019,0.0019,0.0019,0.0044,0.0045,0.0045,0.0046,-0.0026,-0.0028,-0.0031,0,0,0,0,0,0,0,0,0,0,0,0,0,-0.0017,-0.0017,0.0004,0.0004,0.0004,0.0019,0.0019,0.0019,0.0044,0.0045,0.0045,0.0046,-0.0025,-0.0028,-0.0031,0,0,0,0,0,0,0,0,0,0,0,0,0,-0.0006,-0.0016,0.0004,0.0019,0.0021,0.0019,0.0019,0.0019,0.0044,0.0045,0.0046,0.0046,-0.0024,-0.0028,-0.0031,-0.007,0,0,-0.0043,-0.0044,0,0,0,0,0,0,0,0,-0.0007,-0.0006,0.0016,0.0018,0.002,0.0031,-0.0014,-0.0014,0.0044,0.0034,0.0046,0.0047,-0.0015,-0.0019,-0.0018,-0.0073,-0.0076,-0.0043,-0.0045,-0.0047,-0.0048,0,0,0,0,0,0,0,-0.0008,-0.0006,0.0009,0.0017,0.0019,0.0021,0.0023,-0.0014,0.0002,0.0035,0.0037,0.004,-0.0015,-0.0015,-0.002,-0.0077,-0.0043,-0.0046,-0.0048,-0.005,-0.0111,-0.0111,0,0,0,0,0,0,-0.0008,-0.0007,0.0008,0.0009,0.0009,0.0021,0.0024,0.0026,0.0005,0.0003,0.0039,0.0041,-0.0009,-0.0016,-0.0023,-0.0032,-0.0047,-0.005,-0.0052,-0.0112,-0.0111,-0.0111,0,0,0,0,0,0,-0.0008,-0.0007,0.0008,0.0002,0.0005,0.0021,0.0023,0.0026,0.0028,0.0009,0.0006,0.0039,-0.0009,-0.0018,-0.0033,-0.0037,-0.0052,-0.0055,-0.0113,-0.0112,-0.0111,-0.0077,0,0,0,0,0,0,-0.0009,-0.0007,-0.0013,0.0002,0.0005,0.0005,0.0023,0.0026,0.0029,0.0032,0.0007,0.0002,-0.0009,-0.0028,-0.0037,-0.0042,-0.0058,-0.0113,-0.0112,-0.0111,-0.0078,-0.0075,-0.0071,0,0,0,0,0,-0.001,-0.0017,-0.0014,-0.0012,-0.0001,0.0004,0.0005,0.0019,0.0028,0.0024,0.0027,0.0003,-0.0028,-0.003,-0.0041,-0.0047,-0.0114,-0.0112,-0.0111,-0.008,-0.0075,-0.0072,0,0,0,0,0,0,-0.0032,-0.0015,-0.0011,-0.0014,-0.0007,0.0009,0.0001,0.0015,0.0014,0.0013,0.0004,-0.0001,-0.0014,-0.0036,-0.0038,-0.0059,-0.0074,-0.0075,-0.0046,-0.0042,-0.0039,-0.0051,-0.0061,0,0,0,0,0,-0.004,-0.0042,-0.0025,-0.0031,-0.003,-0.0016,-0.0015,-0.0004,0.0002,0.0003,-0.0004,-0.0014,-0.0019,-0.0033,-0.0047,-0.0072,-0.0092,-0.008,-0.0077,-0.0074,-0.0089,-0.0085,-0.0082,-0.0107,-0.0107,-0.0107,0,0,-0.005,-0.0043,-0.0044,-0.0037,-0.0034,-0.0029,-0.0014,-0.0015,-0.0007,-0.001,-0.0009,-0.0008,-0.0021,-0.0029,-0.0038,-0.0049,-0.008,-0.0072,-0.0069,-0.0087,-0.0083,-0.0081,-0.0079,-0.0106,-0.0106,-0.0106,0,0,-0.0067,-0.0068,-0.0071,-0.0065,-0.006,-0.0049,-0.0049,-0.0033,-0.0026,-0.0027,-0.0011,-0.0003,-0.0033,-0.0022,-0.0025,-0.0018,-0.0058,-0.0029,-0.0032,-0.0026,-0.0024,-0.0023,-0.0059,-0.0061,-0.0032,-0.0032,-0.0032,0,-0.0083,-0.0076,-0.0073,-0.0072,-0.0064,-0.0057,-0.0051,-0.0048,-0.0035,-0.0027,-0.0028,-0.0019,-0.0027,-0.0016,-0.0006,-0.0012,-0.0033,-0.0045,-0.0022,-0.0021,-0.002,-0.0058,-0.006,-0.003,-0.003,-0.0031,-0.0031,0,-0.009,-0.0087,-0.0092,-0.0082,-0.0079,-0.0076,-0.0065,-0.0062,-0.0054,-0.0039,-0.0029,-0.0022,-0.0015,-0.001,-0.0012,-0.0004,-0.0029,-0.0013,-0.0033,-0.0016,-0.0056,-0.006,-0.0028,-0.0028,-0.0029,-0.0029,0,0,-0.011,-0.0097,-0.0098,-0.0086,-0.0079,-0.0071,-0.0073,-0.0057,-0.0043,-0.0042,-0.0021,-0.0017,-0.0008,-0.0011,-0.0001,0.0002,-0.0006,-0.0011,-0.0011,-0.005,-0.0032,-0.0064,-0.0072,0.0015,0.0015,0.0015,-0.0068,0,-0.0113,-0.0101,-0.0097,-0.0083,-0.007,-0.0066,-0.006,-0.0049,-0.004,-0.0022,-0.0017,0.0,-0.0011,0.0002,0.0001,0.0002,-0.0013,0.0012,-0.0042,-0.0045,-0.0076,-0.0075,0.0015,-0.0071,-0.0071,-0.0072,-0.0073,0,-0.011,-0.0099,-0.0084,-0.006,-0.0056,-0.0052,-0.0029,-0.0024,-0.001,-0.0002,0.0005,0.001,0.0007,0.0009,-0.0021,-0.0008,-0.003,-0.0035,-0.0037,-0.0086,-0.0083,-0.0088,-0.0079,-0.0079,-0.0078,-0.0078,-0.0077,0,-0.0097,-0.0085,-0.0068,-0.0061,-0.0042,-0.0038,-0.0032,-0.0016,0.0003,0.0011,0.0028,0.0017,0.0017,-0.0007,-0.0052,-0.0031,-0.0093,-0.0057,-0.0115,-0.0119,-0.0081,-0.0081,-0.0081,-0.008,-0.008,-0.008,-0.008,0,-0.0083,-0.0073,-0.0061,-0.0048,-0.0028,-0.0025,0.0,0.0004,0.0028,0.0057,0.0038,0.0054,0.0016,-0.0025,-0.0061,-0.0126,-0.0109,-0.0133,-0.0138,-0.0067,-0.0064,-0.0085,-0.0084,-0.0083,-0.0082,-0.0082,-0.0081,0,-0.0075,-0.0064,-0.0045,-0.0027,-0.0018,-0.001,0.0021,0.0046,0.0055,0.0091,0.0093,0.0074,0.0012,-0.0053,-0.0105,-0.0138,-0.0188,-0.0215,-0.0183,-0.0182,-0.0217,-0.0213,-0.0273,-0.0274,-0.0276,-0.0277,-0.0278,0,-0.007,-0.0058,-0.0033,-0.0016,-0.0012,0.0009,0.0035,0.0056,0.0088,0.0108,0.0129,0.0073,0.0047,-0.0069,-0.0142,-0.0252,-0.025,-0.0292,-0.0212,-0.0235,-0.0234,-0.0229,-0.0223,-0.028,-0.0281,-0.0281,-0.0282,0,-0.007,-0.0066,-0.0052,-0.0013,0.0014,0.0053,0.0087,0.0118,0.0147,0.016,0.0171,0.0116,0.0033,-0.0062,-0.0178,-0.0239,-0.0267,-0.0306,-0.0302,-0.0227,-0.0245,-0.0242,-0.0235,-0.0287,-0.0286,-0.0285,-0.0285,0,-0.0081,-0.0076,-0.0052,-0.0016,0.0023,0.0078,0.0103,0.0144,0.0177,0.0207,0.0203,0.0125,0.0078,-0.0058,-0.0152,-0.0242,-0.0228,-0.0219,-0.0218,-0.0214,-0.0168,-0.018,-0.0218,0,0,0,0,0,-0.0093,-0.008,-0.0051,-0.0006,0.0038,0.0066,0.0131,0.0159,0.0194,0.0216,0.0218,0.0148,0.0022,-0.004,-0.013,-0.0186,-0.0265,-0.0295,-0.0259,-0.0315,-0.0309,-0.0267,0,0,0,0,0,0,-0.01,-0.0083,-0.006,-0.0003,0.0032,0.0088,0.0131,0.0164,0.0182,0.0204,0.0136,0.0126,-0.001,0.0064,-0.0136,-0.0166,-0.0151,-0.0355,-0.0357,-0.0318,-0.0313,-0.0308,-0.0263,0,0,0,0,0]}]]